FW1492 Weather Reports


time (UTC)temp
F
wind
direction
speed
knots
gust
knots
rain 1hr
in
rain 24hr
in
rain mn
in
humidity
%
barometer
mb
20260509164526 54 245 1.7 4.3 0.00 0.03 0.03 85 1013.0
20260509163027 55 231 0.0 1.7 0.00 0.03 0.03 87 1012.8
20260509161523 54 219 0.0 0.9 0.01 0.03 0.03 88 1012.8
20260509160023 53 215 0.9 2.6 0.01 0.03 0.03 89 1013.3
20260509154522 53 200 0.9 2.6 0.01 0.03 0.03 89 1013.2
20260509153033 53 231 0.0 2.6 0.01 0.03 0.03 90 1013.2
20260509151520 53 233 0.9 5.2 0.00 0.02 0.02 89 1013.6
20260509150020 53 231 0.0 2.6 0.00 0.02 0.02 89 1013.5
20260509144518 53 253 0.9 4.3 0.00 0.02 0.02 86 1013.5
20260509143019 54 213 0.9 2.6 0.00 0.02 0.02 84 1013.3
20260509141515 54 224 0.0 2.6 0.00 0.02 0.02 86 1013.1
20260509140011 52 184 0.0 1.7 0.00 0.02 0.02 86 1013.0
20260509134508 51 167 0.0 1.7 0.00 0.02 0.02 87 1013.3
20260509133004 51 199 0.0 1.7 0.00 0.02 0.02 87 1013.4
20260509131501 50 146 0.0 1.7 0.00 0.02 0.02 86 1013.5
20260509130100 50 141 0.0 2.6 0.00 0.02 0.02 86 1013.6
20260509124557 49 169 0.9 1.7 0.00 0.02 0.02 86 1013.6
20260509123057 49 161 0.9 1.7 0.00 0.02 0.02 86 1013.7
20260509121556 49 150 0.9 2.6 0.00 0.02 0.02 86 1013.9
20260509120154 49 168 0.9 2.6 0.00 0.02 0.02 85 1013.6
20260509114553 49 163 0.9 2.6 0.00 0.02 0.02 84 1013.4
20260509113053 48 142 0.0 0.9 0.00 0.02 0.02 83 1013.4
20260509111557 48 143 0.0 0.9 0.00 0.02 0.02 82 1013.6
20260509110051 48 151 0.9 1.7 0.00 0.02 0.02 82 1013.9
20260509104554 49 150 0.9 1.7 0.00 0.02 0.02 80 1013.7
20260509103102 49 144 0.0 0.9 0.00 0.02 0.02 79 1013.6
20260509101550 49 144 0.0 0.9 0.00 0.02 0.02 79 1013.4
20260509100049 49 150 0.0 0.9 0.00 0.02 0.02 79 1013.3
20260509094557 49 155 0.0 0.9 0.00 0.02 0.02 77 1013.5
20260509093048 49 155 0.0 0.9 0.00 0.02 0.02 77 1013.5
20260509091552 49 155 0.0 1.7 0.00 0.02 0.02 76 1013.6
20260509090054 49 155 0.0 0.9 0.00 0.02 0.02 76 1013.9
20260509084556 49 155 0.0 0.9 0.00 0.02 0.02 76 1014.0
20260509083052 49 155 0.9 1.7 0.00 0.02 0.02 77 1013.8
20260509081544 49 161 0.9 1.7 0.00 0.02 0.02 77 1014.0
20260509080048 49 158 0.9 1.7 0.00 0.02 0.02 76 1014.0
20260509074602 49 158 0.9 1.7 0.00 0.04 0.02 76 1013.9
20260509073100 49 151 0.9 1.7 0.00 0.04 0.02 77 1014.1
20260509071548 49 150 0.9 1.7 0.00 0.04 0.02 77 1014.1
20260509070044 49 150 0.0 1.7 0.00 0.04 0.02 78 1013.7
20260509064539 49 152 0.0 0.9 0.01 0.04 0.02 78 1013.7
20260509063053 48 155 0.0 0.9 0.01 0.04 0.02 80 1013.8
20260509061537 48 156 0.0 0.9 0.01 0.04 0.02 84 1014.4
20260509060044 48 156 0.0 1.7 0.01 0.04 0.02 83 1014.5
20260509054536 48 157 0.0 1.7 0.00 0.07 0.01 83 1014.7
20260509053049 48 164 0.9 1.7 0.01 0.07 0.01 83 1014.8
20260509051531 48 157 1.7 1.7 0.01 0.07 0.01 82 1014.8
20260509050030 48 152 0.0 1.7 0.01 0.07 0.01 81 1014.5
20260509044526 49 152 0.0 0.9 0.01 0.07 0.01 77 1014.8
20260509043038 49 152 0.0 1.7 0.00 0.06 0.00 76 1014.8
20260509041523 49 161 0.0 1.7 0.00 0.06 0.00 76 1015.0
20260509040021 49 166 0.9 1.7 0.00 0.06 0.00 77 1014.9
20260509034520 49 155 0.9 1.7 0.00 0.06 0.06 76 1014.9
20260509033020 49 156 0.0 1.7 0.00 0.06 0.06 76 1014.9
20260509031519 49 156 0.0 1.7 0.00 0.06 0.06 76 1015.1
20260509030020 49 158 0.0 1.7 0.00 0.06 0.06 77 1015.0
20260509024519 50 158 0.0 0.9 0.00 0.06 0.06 78 1015.1
20260509023017 50 307 0.0 0.0 0.00 0.06 0.06 74 1015.0
20260509021516 49 307 0.0 0.0 0.00 0.06 0.06 73 1014.9
20260509020015 49 307 0.0 0.0 0.00 0.06 0.06 73 1014.8
20260509014523 49 307 0.0 0.0 0.00 0.06 0.06 73 1014.5
20260509013014 49 307 0.0 0.0 0.00 0.06 0.06 73 1014.2
20260509011612 49 307 0.0 0.0 0.00 0.06 0.06 73 1014.1
20260509010011 49 307 0.0 0.0 0.00 0.06 0.06 75 1013.9
20260509004519 49 307 0.0 0.0 0.00 0.06 0.06 75 1013.5
20260509003012 49 307 0.0 0.0 0.00 0.06 0.06 76 1013.5
20260509001510 50 307 0.0 0.0 0.00 0.06 0.06 75 1013.3
20260509000010 51 307 0.0 0.0 0.00 0.06 0.06 73 1013.3
20260508234508 51 307 0.0 0.0 0.00 0.06 0.06 72 1013.4
20260508233009 52 307 0.0 0.0 0.00 0.06 0.06 70 1013.3
20260508231508 52 294 0.0 0.0 0.00 0.06 0.06 70 1013.3
20260508230008 53 294 0.0 0.0 0.00 0.06 0.06 69 1013.2
20260508224517 53 294 0.0 0.0 0.00 0.06 0.06 70 1013.1
20260508223006 52 295 0.0 0.9 0.00 0.06 0.06 69 1013.1
20260508221506 52 348 0.0 1.7 0.00 0.06 0.06 69 1013.1
20260508220006 52 335 0.0 0.0 0.00 0.06 0.06 71 1013.1
20260508214518 52 44 0.0 1.7 0.00 0.06 0.06 71 1013.2
20260508213004 51 345 0.0 1.7 0.00 0.06 0.06 74 1013.0
20260508211504 51 337 0.0 1.7 0.00 0.06 0.06 74 1013.0
20260508210004 50 55 0.0 0.9 0.00 0.06 0.06 78 1013.1
20260508204503 50 290 0.0 2.6 0.00 0.06 0.06 76 1013.5
20260508203002 51 11 0.0 5.2 0.00 0.06 0.06 74 1013.4
20260508201501 51 318 0.9 6.1 0.00 0.06 0.06 71 1013.1
20260508200004 52 320 1.7 6.1 0.00 0.06 0.06 70 1012.9
20260508194502 52 340 2.6 10.4 0.00 0.06 0.06 70 1013.0
20260508193120 52 299 3.5 10.4 0.00 0.06 0.06 70 1013.1
20260508191607 54 314 3.5 7.0 0.00 0.06 0.06 69 1013.2
20260508190112 52 59 2.6 7.8 0.00 0.06 0.06 70 1013.3
20260508184556 52 318 3.5 7.8 0.00 0.06 0.06 66 1013.5
20260508183059 51 22 0.9 6.1 0.00 0.06 0.06 66 1013.4
20260508181601 50 275 1.7 6.1 0.00 0.06 0.06 65 1013.4
20260508180058 51 333 1.7 5.2 0.00 0.06 0.06 66 1013.3
20260508174553 52 241 1.7 5.2 0.00 0.06 0.06 62 1013.0
20260508173052 53 236 1.7 7.0 0.00 0.06 0.06 64 1012.9
20260508171551 52 319 1.7 7.0 0.00 0.06 0.06 62 1013.3
20260508170057 52 288 1.7 4.3 0.00 0.06 0.06 59 1013.2